Dumas, TX

5:31 PM CST on January 20, 2018 (GMT -0600)
Moore County

Weather History for KDUX - October, 2013

Change the Weather History Date:

Tuesday, October 8, 2013

  Actual Average (KDHT) Record (KDHT)
Temperature  
Mean Temperature 64 °F -  
Max Temperature 82 °F 71 °F 93 °F (1979)
Min Temperature 47 °F 43 °F 25 °F (2012)
Growing Degree Days 14 (Base 50)    
Moisture  
Dew Point 26 °F    
Average Humidity 26    
Maximum Humidity 45    
Minimum Humidity 12    
Precipitation  
Precipitation 0.00 in - - ()
Sea Level Pressure  
Sea Level Pressure 29.97 in    
Wind  
Wind Speed 14 mph (South)    
Max Wind Speed 26 mph    
Max Gust Speed 38 mph    
Visibility 10 miles    
Events      
Averages and records for this station are not official NWS values.
T = Trace of Precipitation, MM = Missing Value Source: NWS Daily Summary

Daily Weather History Graph

Daily Weather History Graph

Search for Another Location

Airport or City:

Trip Planner

Search our weather history database for the weather conditions in past years. The results will help you decide how hot, cold, wet, or windy it might be!

Date:

Astronomy

Oct. 08, 2013 Rise Set
Actual Time 7:49 AM CDT 7:21 PM CDT
Civil Twilight 7:23 AM CDT 7:46 PM CDT
Nautical Twilight 6:53 AM CDT 8:16 PM CDT
Astronomical Twilight 6:24 AM CDT 8:46 PM CDT
Moon 11:38 AM CDT (10/8) 10:07 PM CDT (10/8)
Length of Visible Light 12h 23m
Length of Day
11h 32m
Waxing Crescent, 16% of the Moon is Illuminated
Oct 8
Waxing Crescent
Oct 11
First Quarter
Oct 18
Full
Oct 26
Last Quarter
Nov 3
New

Hourly Weather History & Observations

Time (CDT) Temp. Dew Point Humidity Pressure Visibility Wind Dir Wind Speed Gust Speed Precip Events Conditions
12:15 AM 51.8 °F 28.8 °F 41% 30.09 in 10.0 mi South 9.2 mph - N/A   Clear
12:35 AM 51.1 °F 28.8 °F 42% 30.08 in 10.0 mi South 10.4 mph - N/A   Clear
12:55 AM 53.4 °F 29.1 °F 39% 30.07 in 10.0 mi SSE 9.2 mph - N/A   Clear
1:15 AM 50.5 °F 28.9 °F 43% 30.07 in 10.0 mi South 9.2 mph - N/A   Clear
1:35 AM 51.6 °F 28.8 °F 41% 30.07 in 10.0 mi South 9.2 mph - N/A   Clear
1:55 AM 50.5 °F 28.4 °F 42% 30.07 in 10.0 mi South 9.2 mph - N/A   Clear
2:15 AM 52.7 °F 28.4 °F 39% 30.06 in 10.0 mi South 11.5 mph - N/A   Clear
2:35 AM 53.8 °F 27.9 °F 37% 30.06 in 10.0 mi South 11.5 mph - N/A   Clear
2:55 AM 54.1 °F 27.5 °F 36% 30.05 in 10.0 mi South 11.5 mph - N/A   Clear
3:15 AM 55.8 °F 27.0 °F 33% 30.04 in 10.0 mi South 11.5 mph - N/A   Clear
3:35 AM 54.7 °F 26.6 °F 34% 30.04 in 10.0 mi SSW 11.5 mph - N/A   Clear
3:55 AM 53.8 °F 26.8 °F 35% 30.03 in 10.0 mi South 10.4 mph - N/A   Clear
4:15 AM 52.7 °F 27.1 °F 37% 30.03 in 10.0 mi South 10.4 mph - N/A   Clear
4:35 AM 51.8 °F 27.3 °F 39% 30.03 in 10.0 mi South 10.4 mph - N/A   Clear
4:55 AM 52.7 °F 27.3 °F 38% 30.03 in 10.0 mi South 10.4 mph - N/A   Clear
5:15 AM 50.7 °F 27.5 °F 41% 30.03 in 10.0 mi South 9.2 mph - N/A   Clear
5:35 AM 49.1 °F 27.3 °F 43% 30.03 in 10.0 mi South 10.4 mph - N/A   Clear
5:55 AM 50.0 °F 27.7 °F 42% 30.02 in 10.0 mi South 10.4 mph - N/A   Clear
6:15 AM 48.2 °F 27.5 °F 45% 30.02 in 10.0 mi South 9.2 mph - N/A   Clear
6:35 AM 49.5 °F 27.0 °F 42% 30.02 in 10.0 mi South 10.4 mph - N/A   Clear
6:55 AM 48.9 °F 26.2 °F 41% 30.02 in 10.0 mi South 10.4 mph - N/A   Clear
7:15 AM 47.3 °F 25.7 °F 43% 30.02 in 10.0 mi South 9.2 mph - N/A   Clear
7:35 AM 47.5 °F 25.5 °F 42% 30.02 in 10.0 mi South 9.2 mph - N/A   Clear
7:55 AM 48.4 °F 25.2 °F 40% 30.02 in 10.0 mi South 10.4 mph - N/A   Clear
8:15 AM 48.9 °F 25.2 °F 40% 30.02 in 10.0 mi South 9.2 mph - N/A   Clear
8:35 AM 51.3 °F 25.9 °F 37% 30.02 in 10.0 mi South 8.1 mph - N/A   Clear
8:55 AM 55.2 °F 26.4 °F 33% 30.02 in 10.0 mi South 10.4 mph - N/A   Clear
9:15 AM 59.4 °F 25.7 °F 28% 30.02 in 10.0 mi South 12.7 mph - N/A   Clear
9:35 AM 62.1 °F 26.2 °F 26% 30.02 in 10.0 mi South 13.8 mph 17.3 mph N/A   Clear
9:55 AM 64.4 °F 26.4 °F 24% 30.02 in 10.0 mi SSW 13.8 mph 20.7 mph N/A   Clear
10:15 AM 67.6 °F 27.1 °F 22% 30.02 in 10.0 mi SSW 24.2 mph 27.6 mph N/A   Clear
10:35 AM 67.5 °F 26.6 °F 22% 30.02 in 10.0 mi South 17.3 mph 27.6 mph N/A   Clear
10:55 AM 70.5 °F 27.3 °F 20% 30.01 in 10.0 mi South 19.6 mph 31.1 mph N/A   Clear
11:15 AM 70.3 °F 27.3 °F 20% 30.01 in 10.0 mi South 23.0 mph 31.1 mph N/A   Clear
11:35 AM 74.3 °F 27.9 °F 18% 30.00 in 10.0 mi South 24.2 mph 29.9 mph N/A   Clear
11:55 AM 75.9 °F 27.0 °F 16% 30.00 in 10.0 mi SSW 25.3 mph 34.5 mph N/A   Scattered Clouds
12:15 PM 75.9 °F 26.8 °F 16% 30.00 in 10.0 mi South 26.5 mph 32.2 mph N/A   Clear
12:35 PM 74.5 °F 26.6 °F 17% 30.00 in 10.0 mi South 20.7 mph 28.8 mph N/A   Clear
12:55 PM 77.9 °F 27.5 °F 16% 29.98 in 10.0 mi South 25.3 mph 31.1 mph N/A   Scattered Clouds
1:15 PM 78.1 °F 27.0 °F 15% 29.98 in 10.0 mi SSW 26.5 mph 33.4 mph N/A   Scattered Clouds
1:35 PM 79.2 °F 25.0 °F 14% 29.96 in 10.0 mi SSW 26.5 mph 34.5 mph N/A   Scattered Clouds
1:55 PM 79.3 °F 25.3 °F 14% 29.95 in 10.0 mi South 26.5 mph 36.8 mph N/A   Clear
2:15 PM 79.7 °F 26.6 °F 14% 29.94 in 10.0 mi South 26.5 mph 33.4 mph N/A   Clear
2:35 PM 81.5 °F 25.9 °F 13% 29.93 in 10.0 mi SSW 26.5 mph 38.0 mph N/A   Scattered Clouds
2:55 PM 81.3 °F 25.2 °F 13% 29.91 in 10.0 mi South 23.0 mph 34.5 mph N/A   Mostly Cloudy
3:15 PM 80.4 °F 24.1 °F 13% 29.91 in 10.0 mi South 25.3 mph 34.5 mph N/A   Scattered Clouds
3:35 PM 82.4 °F 25.0 °F 12% 29.91 in 10.0 mi South 26.5 mph 35.7 mph N/A   Clear
3:55 PM 80.1 °F 24.6 °F 13% 29.91 in 10.0 mi South 24.2 mph 34.5 mph N/A   Scattered Clouds
4:15 PM 79.7 °F 23.5 °F 13% 29.91 in 10.0 mi SSW 24.2 mph 29.9 mph N/A   Clear
4:35 PM 81.1 °F 23.2 °F 12% 29.90 in 10.0 mi South 26.5 mph 33.4 mph N/A   Clear
4:55 PM 80.1 °F 23.4 °F 12% 29.90 in 10.0 mi South 20.7 mph 27.6 mph N/A   Clear
5:15 PM 81.7 °F 24.4 °F 12% 29.89 in 10.0 mi South 25.3 mph 28.8 mph N/A   Clear
5:35 PM 81.5 °F 23.4 °F 12% 29.88 in 10.0 mi South 20.7 mph 34.5 mph N/A   Clear
5:55 PM 80.8 °F 23.5 °F 12% 29.87 in 10.0 mi South 21.9 mph 32.2 mph N/A   Clear
6:15 PM 79.9 °F 23.2 °F 12% 29.87 in 10.0 mi South 23.0 mph 31.1 mph N/A   Clear
6:35 PM 78.1 °F 22.5 °F 13% 29.88 in 10.0 mi South 18.4 mph 27.6 mph N/A   Clear
6:55 PM 76.6 °F 23.4 °F 14% 29.88 in 10.0 mi South 17.3 mph - N/A   Clear
7:15 PM 74.8 °F 23.9 °F 15% 29.88 in 10.0 mi SSE 16.1 mph 23.0 mph N/A   Clear
7:35 PM 73.4 °F 25.3 °F 17% 29.88 in 10.0 mi SSE 18.4 mph 23.0 mph N/A   Clear
7:55 PM 71.4 °F 24.8 °F 17% 29.89 in 10.0 mi SSE 15.0 mph - N/A   Clear
8:15 PM 69.8 °F 25.0 °F 19% 29.90 in 10.0 mi SSE 15.0 mph - N/A   Clear
8:35 PM 68.2 °F 26.1 °F 21% 29.90 in 10.0 mi SSE 12.7 mph - N/A   Clear
8:55 PM 68.5 °F 27.5 °F 22% 29.90 in 10.0 mi SSE 17.3 mph 21.9 mph N/A   Clear
9:15 PM 67.3 °F 28.2 °F 23% 29.91 in 10.0 mi SSE 15.0 mph - N/A   Clear
9:35 PM 65.1 °F 28.4 °F 25% 29.91 in 10.0 mi SSE 12.7 mph - N/A   Clear
9:55 PM 63.9 °F 28.9 °F 27% 29.91 in 10.0 mi SSE 12.7 mph - N/A   Clear
10:15 PM 62.6 °F 28.8 °F 28% 29.91 in 10.0 mi SSE 11.5 mph - N/A   Clear
10:35 PM 61.7 °F 28.8 °F 29% 29.91 in 10.0 mi SSE 11.5 mph - N/A   Clear
10:55 PM 60.8 °F 28.4 °F 29% 29.92 in 10.0 mi SSE 10.4 mph - N/A   Clear
11:15 PM 61.7 °F 28.4 °F 28% 29.92 in 10.0 mi South 10.4 mph - N/A   Clear
11:35 PM 60.1 °F 28.6 °F 30% 29.92 in 10.0 mi South 10.4 mph - N/A   Clear
11:55 PM 60.4 °F 28.4 °F 30% 29.92 in 10.0 mi South 12.7 mph - N/A   Clear